Simultaneous Nadir Overpasses (SNOs) Predictions

Prediction of SNOs between LANDSAT-8 and METOP-B Satellite Orbit:

Table of predicted SNOs for the next 14.0 days since TLE Epoch: 7/26/2018
Index Date (LANDSAT-8) Time (LANDSAT-8) Lat,Lon (LANDSAT-8) SZA (LANDSAT-8 ) Date (METOP-B) Time (METOP-B) Lat,Lon (METOP-B) SZA (METOP-B ) Distance(km) Time Diff (sec)
1 07/29/2018 03:29:34 -81.22, -10.93 115.45 07/29/2018 03:28:26 -81.22, -10.84 115.46 1.62 68
2 07/29/2018 04:18:59 81.24, 157.21 64.64 07/29/2018 04:19:05 81.24, 157.27 64.65 1.16 6
3 07/31/2018 23:03:49 -81.22, 55.55 114.76 07/31/2018 23:02:45 -81.22, 55.46 114.79 1.62 64
4 07/31/2018 23:53:14 81.25,-136.34 65.32 07/31/2018 23:53:24 81.24,-136.47 65.31 2.19 10
5 08/03/2018 18:38:05 -81.22, 122.01 114.03 08/03/2018 18:37:04 -81.23, 122.12 114.04 2.12 61
6 08/03/2018 19:27:30 81.24, -69.91 66.05 08/03/2018 19:27:43 81.25, -69.84 66.06 1.31 13
7 08/06/2018 14:12:21 -81.22,-171.57 113.27 08/06/2018 14:11:24 -81.22,-171.61 113.29 0.87 57
8 08/06/2018 15:01:46 81.24, -3.51 66.81 08/06/2018 15:02:03 81.24, -3.61 66.80 1.70 17
9 08/09/2018 09:46:35 -81.24,-104.80 112.42 08/09/2018 09:45:42 -81.23,-104.98 112.47 3.28 53




NCC Satellite Simultaneous Nadir Overpasses (SNOs) Prediction Service
